Regional Weather Roundup
Issued by NWS Little Rock, AR

Home | Current Version | Previous Version | Text Only | Print | Product List | Glossary Off
Versions: 1 2 3 4 5 6 7 8 9 10 11 12 13 14 15 16 17 18 19 20 21 22 23 24 25 26 27 28 29 30 31 32 33 34 35 36 37 38 39 40 41 42 43 44 45 46 47 48 49 50

000
ASUS44 KLZK 271005
RWRLZK

WEATHER ROUNDUP FOR ARKANSAS
NATIONAL WEATHER SERVICE LITTLE ROCK AR
500 AM CDT TUE SEP 27 2016

NOTE: "FAIR" INDICATES FEW OR NO CLOUDS BELOW 12,000 FEET WITH NO
SIGNIFICANT WEATHER AND/OR OBSTRUCTIONS TO VISIBILITY.

ARZ001-003-010-029-271100-
NORTHWEST ARKANSAS

CITY           SKY/WX    TMP DP  RH WIND       PRES   REMARKS
FAYETTEVILLE   CLOUDY    45  45 100 CALM      30.14F
FORT SMITH     PTCLDY    54  49  83 CALM      30.12S
HARRISON       CLEAR     50  42  74 W6        30.13S
BENTONVILLE    CLEAR     48  43  81 CALM      30.12F
ROGERS         CLEAR     49  46  90 S3        30.13F
SILOAM SPGS    CLEAR     46  37  71 E3        30.13F
HIGHFILL       CLEAR     45  43  93 CALM      30.13S FOG
$$

ARZ004-005-016-271100-
NORTH CENTRAL ARKANSAS

CITY           SKY/WX    TMP DP  RH WIND       PRES   REMARKS
BATESVILLE     CLEAR     52  46  82 W5        30.10S
FLIPPIN        CLEAR     48  45  87 CALM      30.10S
MTN HOME       LGT RAIN  51  51 100 CALM      30.11S VSB 1/4
$$

ARZ040-041-271100-
WEST CENTRAL ARKANSAS

CITY           SKY/WX    TMP DP  RH WIND       PRES   REMARKS
MENA           MOCLDY    54  52  94 CALM      30.12S
MOUNT IDA      MOCLDY    56  54  93 CALM      30.08F
$$

ARZ009-017-025-026-028-271100-
NORTHEAST ARKANSAS

CITY           SKY/WX    TMP DP  RH WIND       PRES   REMARKS
CORNING          N/A     50  50 100 CALM      30.08S
JONESBORO      CLEAR     50  46  86 CALM      30.07F
NEWPORT        CLEAR     54  49  83 W3        30.09R
WALNUT RIDGE   CLEAR     52  46  82 NW7       30.07F
BLYTHEVILLE    PTCLDY    53  50  89 N5        30.07F
$$

ARZ022-023-033-042-044-271100-
CENTRAL ARKANSAS

CITY           SKY/WX    TMP DP  RH WIND       PRES   REMARKS
LITTLE ROCK    CLOUDY    61  50  67 NW3       30.08F
N LITTLE ROCK    N/A     60  48  64 N5        30.06F
JACKSONVILLE   CLOUDY    54  51  90 W3        30.08S
SEARCY         CLOUDY    56  49  77 N5        30.10S
HOT SPRINGS    CLOUDY    59  52  77 CALM      30.09S
RUSSELLVILLE   PTCLDY    52  50  93 CALM      30.11S
$$

ARZ036-271100-
EAST ARKANSAS

CITY           SKY/WX    TMP DP  RH WIND       PRES   REMARKS
WEST MEMPHIS   MOCLDY    55  53  93 CALM      30.06R
$$

ARZ050-053-066-070-073-271100-
SOUTHWEST ARKANSAS

CITY           SKY/WX    TMP DP  RH WIND       PRES   REMARKS
ARKADELPHIA    FAIR      61  58  90 N3        30.09S
TEXARKANA      CLOUDY    66  59  78 N3        30.08S
EL DORADO      CLOUDY    62  56  80 N6        30.06S
DE QUEEN       PTCLDY    59  59 100 CALM      30.08R
$$

ARZ056-057-069-271100-
SOUTHEAST ARKANSAS

CITY           SKY/WX    TMP DP  RH WIND       PRES   REMARKS
PINE BLUFF     MOCLDY    59  56  89 N3        30.07S
STUTTGART      CLOUDY    57  52  82 N7        30.08S
MONTICELLO     CLOUDY    62  55  77 VRB3      30.05S

$$





USA.gov is the U.S. government's official web portal to all federal, state and local government web resources and services.